User: anonymous   Login
Location: Unspecified
(0.0000°N, 0.0000°E)
Time: 11:32:36
(UTC+01:00)
Language:

NATO 3D Rocket - Orbit

View from above orbital plane
View from above orbital plane
View from above satellite
View from above satellite

Ground track
Ground track

The orbit data is extracted from the following two-line orbital elements,

1 15392U 84115B   17021.93914003  .00000148  00000-0 -19320-4 0  9992
2 15392  21.4968 259.4239 1034549 269.5309  78.6683 12.45543606465768
Epoch (UTC): 21 January 2017 22:32:21
Eccentricity: 0.1034549
inclination: 21.4968°
perigee height: 670 km
apogee height: 2296 km
right ascension of ascending node: 259.4239°
argument of perigee: 269.5309°
revolutions per day: 12.45543606
mean anomaly at epoch: 78.6683°
orbit number at epoch: 46576

The dashed part of the orbit path shows where the satellite is in the earth's shadow,  

DLR